Location: Arcusa
(42.3167°N, 0.0833°W)
Time: 17:00:23
(UTC+00:00)

CZ-4B DEB - Pass Details

Date: 25 January 2020
Orbit: 840 x 862 km, 99.1° (Epoch: 25 February)

Event Time Altitude Azimuth Distance (km) Brightness Sun altitude
Rises 06:03:42 0° 8° (N) 3,445 7.3 -14.3°
Reaches altitude 10° 06:06:10 10° 2° (N) 2,501 6.5 -13.9°
Maximum altitude 06:11:25 45° 291° (WNW) 1,149 4.5 -12.9°
Drops below altitude 10° 06:16:37 10° 220° (SW) 2,473 6.4 -12.0°
Sets 06:19:03 0° 215° (SW) 3,402 7.2 -11.5°
